When you browse on this site, cookies collect data to enhance your experience and personalize the content and advertising you see.
Visit our Privacy Policy to learn more. By continuing to use the site, you agree to this use of cookies and data.
  • In France
  • List of Countries
  • For 7 days
  • Water Temperature
  • Weather Map
  • Weather Widgets
  • user-avatar
    Login

    Hourly Weather Rio Branco

    Today, 23 August, Friday

    Time Temperature Precipitation Wind Pressure Humidity
    00:00 +26°C° 0 mm 0 mps 748 mmHg 46%
    01:00 +27°C° 0 mm 1 mps 748 mmHg 48%
    02:00 +26°C° 0 mm 1 mps 747 mmHg 50%
    03:00 +26°C° 0 mm 1 mps 747 mmHg 51%
    04:00 +25°C° 0 mm 1 mps 747 mmHg 52%
    05:00 +26°C° 0 mm 1 mps 748 mmHg 51%
    06:00 +25°C° 0 mm 0 mps 749 mmHg 49%
    07:00 +26°C° 0 mm 0 mps 749 mmHg 47%
    08:00 +31°C° 0 mm 1 mps 749 mmHg 40%
    09:00 +35°C° 0 mm 1 mps 749 mmHg 32%
    10:00 +39°C° 0 mm 1 mps 750 mmHg 25%
    11:00 +40°C° 0 mm 2 mps 749 mmHg 24%
    12:00 +40°C° 0 mm 2 mps 747 mmHg 23%
    13:00 +40°C° 0 mm 3 mps 746 mmHg 22%
    14:00 +39°C° 0 mm 2 mps 746 mmHg 22%
    15:00 +39°C° 0 mm 2 mps 745 mmHg 23%
    16:00 +39°C° 0 mm 1 mps 745 mmHg 23%
    17:00 +35°C° 0 mm 1 mps 745 mmHg 28%
    18:00 +33°C° 0 mm 1 mps 745 mmHg 32%
    19:00 +30°C° 0 mm 1 mps 745 mmHg 37%
    20:00 +30°C° 0 mm 1 mps 746 mmHg 38%
    21:00 +29°C° 0 mm 1 mps 746 mmHg 39%
    22:00 +26°C° 0 mm 0 mps 746 mmHg 40%
    23:00 +26°C° 0 mm 0 mps 746 mmHg 41%

    Tomorrow, 24 August, Saturday

    Time Temperature Precipitation Wind Pressure Humidity
    00:00 +25°C° 0 mm 0 mps 746 mmHg 42%
    01:00 +25°C° 0 mm 0 mps 745 mmHg 43%
    02:00 +24°C° 0 mm 0 mps 745 mmHg 44%
    03:00 +24°C° 0 mm 0 mps 745 mmHg 45%
    04:00 +23°C° 0 mm 0 mps 746 mmHg 46%
    05:00 +24°C° 0 mm 0 mps 746 mmHg 45%
    06:00 +25°C° 0 mm 0 mps 746 mmHg 44%
    07:00 +26°C° 0 mm 0 mps 747 mmHg 43%
    08:00 +30°C° 0 mm 0 mps 747 mmHg 36%
    09:00 +35°C° 0 mm 1 mps 747 mmHg 30%
    10:00 +40°C° 0 mm 1 mps 748 mmHg 23%
    11:00 +41°C° 0 mm 1 mps 747 mmHg 21%
    12:00 +43°C° 0 mm 1 mps 746 mmHg 20%
    13:00 +44°C° 0 mm 1 mps 744 mmHg 18%
    14:00 +43°C° 0 mm 1 mps 744 mmHg 19%
    15:00 +42°C° 0 mm 1 mps 743 mmHg 20%
    16:00 +37°C° 0 mm 0 mps 742 mmHg 21%
    17:00 +35°C° 0 mm 0 mps 743 mmHg 25%
    18:00 +33°C° 0 mm 0 mps 743 mmHg 29%
    19:00 +31°C° 0 mm 0 mps 744 mmHg 32%
    20:00 +30°C° 0 mm 0 mps 744 mmHg 35%
    21:00 +29°C° 0 mm 0 mps 744 mmHg 37%
    22:00 +28°C° 0 mm 0 mps 745 mmHg 40%
    23:00 +27°C° 0 mm 0 mps 744 mmHg 41%

    Day after tomorrow, 25 August, Sunday

    Time Temperature Precipitation Wind Pressure Humidity
    00:00 +27°C° 0 mm 0 mps 744 mmHg 42%
    01:00 +26°C° 0 mm 0 mps 744 mmHg 43%
    02:00 +27°C° 0 mm 0 mps 744 mmHg 43%
    03:00 +29°C° 0 mm 1 mps 744 mmHg 42%
    04:00 +29°C° 0 mm 1 mps 744 mmHg 41%
    05:00 +29°C° 0 mm 1 mps 745 mmHg 43%
    06:00 +29°C° 0 mm 1 mps 746 mmHg 44%
    07:00 +29°C° 0 mm 1 mps 746 mmHg 45%
    08:00 +32°C° 0 mm 1 mps 747 mmHg 40%
    09:00 +34°C° 0 mm 1 mps 747 mmHg 36%
    10:00 +38°C° 0 mm 2 mps 747 mmHg 31%
    11:00 +39°C° 0 mm 2 mps 746 mmHg 29%
    12:00 +40°C° 0 mm 2 mps 745 mmHg 26%
    13:00 +41°C° 0 mm 2 mps 744 mmHg 24%
    14:00 +40°C° 0 mm 2 mps 744 mmHg 24%
    15:00 +40°C° 0 mm 1 mps 743 mmHg 25%
    16:00 +39°C° 0 mm 1 mps 743 mmHg 25%
    17:00 +36°C° 0 mm 1 mps 743 mmHg 30%
    18:00 +34°C° 0 mm 1 mps 743 mmHg 35%
    19:00 +31°C° 0 mm 1 mps 743 mmHg 40%
    20:00 +29°C° 0 mm 0 mps 744 mmHg 41%
    21:00 +28°C° 0 mm 0 mps 744 mmHg 42%
    22:00 +28°C° 0 mm 0 mps 744 mmHg 44%
    23:00 +27°C° 0 mm 0 mps 744 mmHg 45%

    26 August, Monday

    Time Temperature Precipitation Wind Pressure Humidity
    00:00 +27°C° 0 mm 0 mps 744 mmHg 46%
    01:00 +26°C° 0 mm 0 mps 744 mmHg 48%
    02:00 +28°C° 0 mm 1 mps 744 mmHg 49%
    03:00 +28°C° 0 mm 1 mps 744 mmHg 51%
    04:00 +27°C° 0 mm 1 mps 744 mmHg 52%
    05:00 +28°C° 0 mm 1 mps 745 mmHg 52%
    06:00 +29°C° 0 mm 1 mps 746 mmHg 51%
    07:00 +29°C° 0 mm 1 mps 747 mmHg 51%
    08:00 +32°C° 0 mm 1 mps 747 mmHg 46%
    09:00 +34°C° 0 mm 1 mps 747 mmHg 41%
    10:00 +37°C° 0 mm 1 mps 747 mmHg 36%
    11:00 +37°C° 0 mm 1 mps 746 mmHg 34%
    12:00 +39°C° 0 mm 1 mps 745 mmHg 33%
    13:00 +39°C° 0 mm 1 mps 744 mmHg 32%
    14:00 +37°C° 0 mm 1 mps 744 mmHg 33%
    15:00 +38°C° 0 mm 2 mps 743 mmHg 34%
    16:00 +37°C° 0 mm 2 mps 743 mmHg 35%
    17:00 +34°C° 0 mm 1 mps 743 mmHg 41%
    18:00 +32°C° 0 mm 1 mps 744 mmHg 46%
    19:00 +28°C° 0 mm 0 mps 744 mmHg 51%
    20:00 +28°C° 0 mm 0 mps 744 mmHg 53%
    21:00 +27°C° 0 mm 0 mps 745 mmHg 54%
    22:00 +27°C° 0 mm 0 mps 745 mmHg 56%
    23:00 +26°C° 0 mm 0 mps 745 mmHg 58%

    27 August, Tuesday

    Time Temperature Precipitation Wind Pressure Humidity
    00:00 +26°C° 0 mm 0 mps 745 mmHg 59%
    01:00 +26°C° 0 mm 0 mps 745 mmHg 61%
    02:00 +25°C° 0 mm 0 mps 745 mmHg 62%
    03:00 +25°C° 0 mm 0 mps 745 mmHg 64%
    04:00 +24°C° 0 mm 0 mps 745 mmHg 66%
    05:00 +25°C° 0 mm 0 mps 746 mmHg 63%
    06:00 +26°C° 0 mm 0 mps 746 mmHg 61%
    07:00 +27°C° 0 mm 0 mps 747 mmHg 58%
    08:00 +29°C° 0 mm 0 mps 747 mmHg 52%
    09:00 +31°C° 0 mm 0 mps 747 mmHg 46%
    10:00 +34°C° 0 mm 0 mps 748 mmHg 39%
    11:00 +37°C° 0 mm 1 mps 747 mmHg 36%
    12:00 +39°C° 0 mm 1 mps 746 mmHg 33%
    13:00 +40°C° 0 mm 1 mps 745 mmHg 30%
    14:00 +40°C° 0 mm 1 mps 744 mmHg 30%
    15:00 +39°C° 0 mm 1 mps 744 mmHg 30%
    16:00 +39°C° 0 mm 1 mps 743 mmHg 29%
    17:00 +35°C° 0 mm 1 mps 743 mmHg 34%
    18:00 +33°C° 0 mm 1 mps 744 mmHg 39%
    19:00 +29°C° 0 mm 0 mps 744 mmHg 44%
    20:00 +28°C° 0 mm 0 mps 744 mmHg 46%
    21:00 +28°C° 0 mm 0 mps 745 mmHg 48%
    22:00 +27°C° 0 mm 0 mps 745 mmHg 50%
    23:00 +26°C° 0 mm 0 mps 745 mmHg 53%

    28 August, Wednesday

    Time Temperature Precipitation Wind Pressure Humidity
    00:00 +26°C° 0 mm 0 mps 745 mmHg 55%
    01:00 +25°C° 0 mm 0 mps 745 mmHg 58%
    02:00 +25°C° 0 mm 0 mps 745 mmHg 60%
    03:00 +24°C° 0 mm 0 mps 745 mmHg 63%
    04:00 +26°C° 0 mm 1 mps 745 mmHg 65%
    05:00 +27°C° 0 mm 1 mps 746 mmHg 63%
    06:00 +28°C° 0 mm 1 mps 746 mmHg 61%
    07:00 +28°C° 0 mm 1 mps 747 mmHg 58%
    08:00 +32°C° 0 mm 1 mps 747 mmHg 49%
    09:00 +35°C° 0 mm 1 mps 748 mmHg 40%
    10:00 +39°C° 0 mm 1 mps 748 mmHg 30%
    11:00 +41°C° 0 mm 1 mps 747 mmHg 26%
    12:00 +44°C° 0 mm 1 mps 746 mmHg 23%
    13:00 +43°C° 0 mm 0 mps 744 mmHg 19%
    14:00 +43°C° 0 mm 1 mps 744 mmHg 21%
    15:00 +41°C° 0 mm 1 mps 743 mmHg 23%
    16:00 +39°C° 0 mm 1 mps 743 mmHg 26%
    17:00 +36°C° 0 mm 1 mps 743 mmHg 31%
    18:00 +34°C° 0 mm 1 mps 743 mmHg 36%
    19:00 +32°C° 0 mm 1 mps 744 mmHg 41%
    20:00 +31°C° 0 mm 1 mps 744 mmHg 43%
    21:00 +31°C° 0 mm 1 mps 744 mmHg 46%
    22:00 +30°C° 0 mm 1 mps 745 mmHg 48%
    23:00 +29°C° 0 mm 1 mps 745 mmHg 51%
    Show more